DateTimeUTC,F1_A11,F1_S11,BsB_S11,BsG_S11,BsR_S11,BbsB_S11,BbsG_S11,BbsR_S11,BaB_A11,BaG_A11,BaR_A11,Tu_S11,T_S11,Uu_S11,U_S11,P_S11,T1_A11
2021-05-14T22:00:00Z,00040200,21000000,,,,,,,0000.11,-000.02,-000.14,16.3,23.2,01.2,00.8,0673.9,30.9
2021-05-14T22:01:00Z,00040200,21000000,,,,,,,-000.04,-000.09,-000.06,16.3,23.2,01.2,00.8,0673.9,30.9
2021-05-14T22:02:00Z,00040200,21000000,,,,,,,0000.14,-000.08,0000.22,16.3,23.2,00.9,00.6,0673.9,30.9
2021-05-14T22:03:00Z,00040200,61000000,,,,,,,0000.80,0000.77,0000.59,16.3,23.2,00.9,00.6,0673.9,30.9
2021-05-14T22:04:00Z,00040200,41000000,0001.34,0001.15,0000.89,0000.41,0000.29,0000.29,0000.72,0000.78,0000.41,16.4,23.0,01.1,00.7,0674.9,30.8
2021-05-14T22:05:00Z,00040200,01000000,0002.17,0001.13,0000.91,0000.78,0000.10,0000.03,0000.52,0000.36,-000.03,16.4,22.9,01.2,00.8,0675.0,30.8
2021-05-14T22:06:00Z,00040200,01000000,0002.23,0001.16,0000.69,0000.37,0000.23,0000.43,0000.79,0000.79,0000.90,16.4,22.9,01.2,00.8,0675.0,30.8
2021-05-14T22:07:00Z,00040200,01000000,0002.26,0001.22,0000.93,0000.32,-000.00,0000.02,0000.22,0000.39,0000.24,16.3,22.9,01.2,00.8,0675.0,30.8
2021-05-14T22:08:00Z,00040200,01000000,0002.15,0000.87,0000.71,0000.16,0000.20,0000.10,0000.88,0000.63,0000.47,16.3,22.8,01.3,00.9,0675.0,30.8
2021-05-14T22:09:00Z,00040200,01000000,0001.79,0000.99,0000.88,0000.58,0000.02,0000.29,0000.55,0000.66,0000.51,16.3,22.8,01.2,00.8,0675.0,30.8
2021-05-14T22:10:00Z,00040200,01000000,0002.44,0001.05,0000.91,0000.46,0000.18,-000.04,0000.98,0000.88,0000.34,16.3,22.8,01.3,00.9,0675.0,30.8
2021-05-14T22:11:00Z,00040200,01000000,0001.58,0001.11,0000.59,0000.77,0000.18,-000.08,0000.45,0000.35,0000.42,16.3,22.8,01.3,00.9,0675.0,30.9
2021-05-14T22:12:00Z,00040200,01000000,0002.48,0001.25,0000.88,0000.49,0000.24,0000.18,0000.61,0000.48,0000.85,16.4,22.9,01.3,00.9,0675.0,30.9
2021-05-14T22:13:00Z,00040200,01000000,0001.61,0001.30,0000.69,0000.21,0000.18,0000.28,0000.36,0000.48,0000.11,16.5,22.9,01.4,00.9,0675.0,30.9
2021-05-14T22:14:00Z,00040200,01000000,0001.52,0001.17,0000.74,0000.64,0000.32,0000.19,0000.99,0000.82,0000.43,16.6,23.0,01.3,00.9,0675.0,30.9
2021-05-14T22:15:00Z,00040200,01000000,0002.79,0001.00,0000.74,0000.63,0000.14,0000.24,0000.33,0000.39,0000.26,16.6,23.0,01.3,00.9,0675.0,30.9
2021-05-14T22:16:00Z,00040200,01000000,0001.19,0001.25,0000.60,0000.87,0000.06,0000.15,0000.48,0000.47,0000.59,16.6,23.0,01.3,00.9,0675.0,30.9
2021-05-14T22:17:00Z,00040200,01000000,0001.96,0001.25,0000.71,0000.22,0000.15,0000.04,0001.04,0000.74,0000.53,16.6,23.0,01.2,00.8,0675.0,30.9
2021-05-14T22:18:00Z,00040200,01000000,0002.14,0001.10,0000.88,0000.30,0000.03,0000.19,0000.49,0000.67,0000.11,16.6,23.0,01.2,00.8,0675.0,30.9
2021-05-14T22:19:00Z,00040200,01000000,0001.67,0001.14,0000.70,0000.83,0000.25,0000.01,0000.59,0000.49,0000.64,16.6,23.0,01.2,00.8,0675.0,30.9
2021-05-14T22:20:00Z,00040200,01000000,0002.25,0001.19,0000.71,0000.77,0000.30,0000.03,0000.51,0000.27,0000.26,16.5,22.9,01.3,00.9,0675.0,30.8
2021-05-14T22:21:00Z,00040200,01000000,0001.90,0001.05,0000.83,0000.08,0000.23,-000.10,0001.03,0000.65,0000.67,16.5,22.9,01.3,00.8,0675.0,30.8
2021-05-14T22:22:00Z,00040200,01000000,0002.02,0001.20,0000.37,0000.56,0000.10,0000.09,0000.45,0000.80,0000.35,16.4,22.9,01.3,00.9,0675.0,30.8
2021-05-14T22:23:00Z,00040200,01000000,0001.78,0000.88,0000.94,0000.28,0000.17,0000.19,0000.97,0000.56,0000.63,16.4,22.9,01.4,00.9,0675.0,30.8
2021-05-14T22:24:00Z,00040200,01000000,0001.70,0000.79,0000.85,0000.58,0000.31,0000.11,0000.90,0000.91,0000.14,16.4,22.9,01.3,00.9,0675.0,30.8
2021-05-14T22:25:00Z,00040200,01000000,0001.99,0001.09,0000.70,0000.41,0000.22,0000.16,0000.19,0000.64,0000.91,16.4,22.9,01.4,00.9,0675.0,30.8
2021-05-14T22:26:00Z,00040200,01000000,0002.45,0001.30,0000.87,0000.97,0000.06,0000.19,0000.60,0000.09,0000.29,16.4,22.9,01.4,00.9,0675.0,30.9
2021-05-14T22:27:00Z,00040200,01000000,0001.95,0001.21,0000.51,0000.32,0000.17,-000.02,0000.50,0000.59,0000.15,16.5,22.9,01.4,00.9,0675.0,30.9
2021-05-14T22:28:00Z,00040200,01000000,0001.49,0000.75,0000.50,0000.66,0000.19,0000.10,0000.62,0000.39,0000.60,16.6,23.0,01.2,00.8,0675.1,30.9
2021-05-14T22:29:00Z,00040200,01000000,0001.39,0001.28,0000.80,0000.88,0000.37,0000.24,0000.29,0000.27,0000.20,16.6,23.0,01.2,00.8,0675.0,30.9
2021-05-14T22:30:00Z,00040200,01000000,0001.87,0000.91,0001.01,0000.69,0000.20,0000.16,0000.60,0000.41,0000.49,16.7,23.0,01.2,00.8,0675.0,30.9
2021-05-14T22:31:00Z,00040200,01000000,0002.19,0001.05,0000.93,0000.93,0000.26,0000.29,0000.91,0001.07,0000.66,16.6,23.0,01.3,00.9,0675.0,30.9
2021-05-14T22:32:00Z,00040200,01000000,0001.97,0001.32,0001.04,0000.76,0000.30,0000.29,0000.80,0000.58,0000.18,16.6,23.0,01.2,00.8,0675.0,30.9
2021-05-14T22:33:00Z,00040200,01000000,0002.10,0001.29,0000.73,0000.98,0000.29,-000.10,0000.35,0000.78,0000.60,16.5,23.0,01.3,00.9,0675.0,30.8
2021-05-14T22:34:00Z,00040200,01000000,0002.01,0001.08,0000.61,0000.10,0000.18,0000.04,0000.34,0000.09,-000.28,16.5,22.9,01.2,00.8,0675.0,30.8
2021-05-14T22:35:00Z,00040200,01000000,0001.47,0001.25,0000.91,0000.57,0000.05,0000.18,0000.58,0000.41,0000.77,16.5,22.9,01.2,00.8,0675.0,30.8
2021-05-14T22:36:00Z,00040200,01000000,0002.35,0001.18,0000.68,0000.67,0000.16,0000.12,0000.42,0000.60,0000.14,16.4,22.9,01.2,00.8,0675.0,30.8
2021-05-14T22:37:00Z,00040200,01000000,0001.99,0000.93,0000.87,0000.36,-000.13,0000.23,0000.79,0000.46,0000.49,16.4,22.8,01.2,00.8,0675.0,30.8
2021-05-14T22:38:00Z,00040200,01000000,0002.01,0000.95,0000.88,0000.65,0000.12,-000.16,0000.42,0000.47,0000.21,16.3,22.8,01.2,00.8,0675.0,30.8
2021-05-14T22:39:00Z,00040200,01000000,0001.44,0001.19,0000.92,0000.49,0000.11,0000.10,0000.67,0000.78,0000.82,16.3,22.8,01.3,00.8,0675.0,30.8
2021-05-14T22:40:00Z,00040200,01000000,0001.85,0000.87,0000.92,0000.50,0000.21,0000.04,0000.64,0000.26,0000.44,16.3,22.8,01.3,00.9,0675.0,30.8
2021-05-14T22:41:00Z,00040200,01000000,0001.67,0001.12,0000.66,0000.34,0000.29,-000.05,0000.66,0000.64,-000.13,16.4,22.8,01.2,00.8,0675.0,30.9
2021-05-14T22:42:00Z,00040200,01000000,0001.64,0001.21,0000.55,0000.31,-000.09,0000.04,0000.71,0000.33,0000.83,16.4,22.9,01.2,00.8,0675.0,30.9
2021-05-14T22:43:00Z,00040200,01000000,0002.03,0000.98,0000.35,0000.47,0000.39,0000.06,0000.17,0000.74,0000.46,16.5,22.9,01.2,00.8,0675.0,30.9
2021-05-14T22:44:00Z,00040200,01000000,0002.08,0000.93,0000.62,0000.34,0000.17,0000.02,0000.78,0000.13,0000.22,16.5,23.0,01.2,00.8,0675.0,30.9
2021-05-14T22:45:00Z,00040200,01000000,0001.37,0000.75,0000.62,0000.45,0000.05,-000.04,0000.62,0000.62,0000.36,16.6,23.0,01.2,00.8,0675.0,30.9
2021-05-14T22:46:00Z,00040200,01000000,0001.56,0000.71,0000.57,0000.62,-000.08,0000.02,0000.69,0000.73,0000.39,16.6,23.0,01.2,00.8,0675.0,30.9
2021-05-14T22:47:00Z,00040200,01000000,0001.71,0000.76,0000.53,0000.30,0000.26,-000.03,0000.05,0000.43,0000.38,16.5,22.9,01.2,00.8,0675.0,30.9
2021-05-14T22:48:00Z,00040200,01000000,0001.66,0000.94,0000.24,0000.27,-000.15,0000.39,0000.49,0000.19,-000.10,16.5,22.9,01.2,00.8,0675.0,30.8
2021-05-14T22:49:00Z,00040200,01000000,0001.26,0000.76,0000.83,0000.84,0000.13,0000.11,0000.39,0000.45,0000.50,16.4,22.9,01.2,00.8,0675.0,30.8
2021-05-14T22:50:00Z,00040200,01000000,0001.22,-000.12,0000.20,0000.71,-000.01,-000.30,0000.44,0000.15,0000.31,16.4,22.9,01.2,00.8,0675.0,30.8
2021-05-14T22:51:00Z,00040200,01000000,0000.38,0000.27,-000.00,0000.20,0000.07,0000.21,0000.15,0000.27,0000.15,16.3,22.8,01.1,00.8,0675.0,30.8
2021-05-14T22:52:00Z,00040200,01000000,0000.74,0000.16,-000.03,0000.25,0000.12,0000.06,0000.47,0000.02,0000.05,16.3,22.8,01.1,00.7,0675.0,30.8
2021-05-14T22:53:00Z,00040200,01000000,-000.07,-000.19,-000.01,0000.40,0000.09,-000.16,-000.13,0000.66,0000.21,16.3,22.8,01.2,00.8,0675.0,30.8
2021-05-14T22:54:00Z,00040200,01000000,0000.89,-000.10,0000.64,0000.21,0000.13,0000.04,0000.30,-000.27,-000.06,16.2,22.7,01.2,00.8,0675.0,30.8
2021-05-14T22:55:00Z,00040200,01000000,0000.36,0000.05,0000.09,0000.44,0000.18,-000.03,0000.29,0000.63,0000.59,16.2,22.7,01.3,00.8,0675.0,30.8
2021-05-14T22:56:00Z,00040200,01000000,0000.39,0000.23,0000.06,0000.22,0000.28,0000.08,0000.18,-000.19,-000.40,16.3,22.8,01.2,00.8,0675.0,30.8
2021-05-14T22:57:00Z,00040200,41000000,,,,,,,0000.17,0000.36,0000.41,16.3,22.9,01.7,01.1,0675.0,30.9
2021-05-14T22:58:00Z,00040200,61000000,,,,,,,-000.37,-000.40,-000.26,16.1,23.1,01.1,00.7,0674.1,30.9
2021-05-14T22:59:00Z,00040200,21000000,,,,,,,0000.14,0000.15,-000.07,16.2,23.2,00.9,00.6,0674.1,30.9
